sat.trackr.live / text

‹ back to catalog

STARLINK-30377

NORAD 57825 · 2023-138T

PAYLOAD ACTIVE UNKNOWN

§ Identity

Operator
Country
US
Launch date
2023-09-09
Launch site
AFETR
Launch vehicle
Mass (kg)
RCS (m²)

Purposes: comms

External: N2YO · Heavens-Above · Gunter

§ Orbital elements

Epoch: 2026-09-20T13:22:52.167936Z

Period
94.27 min
Inclination
42.9985°
Eccentricity
0.0001171
Mean motion
15.27578861 rev/d
Perigee alt
482.2 km
Apogee alt
483.9 km
Semi-major
6,861.2 km
B*
2.5123e-5
RAAN
213.4286°
Arg perigee
265.5850°
Mean anomaly
94.4868°
Rev number
16,843

§ Raw data

STARLINK-303771 57825U 23138T   26263.55754824  .00000429  00000+0  25123-4 0  99942 57825  42.9985 213.4286 0001171 265.5850  94.4868 15.27578861168434

JSON: /api/v1/satellites/57825 · /tle

For live sub-satellite position, see the globe view (requires WebGL).

§ Visibility from observer

Set your observer location to see the next 7 days of passes ≥ 10°. The values pass through the URL so the page stays shareable.

No JS? Fill the form by hand. The geolocation button needs JavaScript.